Terug naar catalogus

ONEWEB-0320

ActiefCommunicatiePO
NORAD 49190·PAYLOAD·🇬🇧 United Kingdom

Gelanceerd Sep 14, 2021 vanaf Baikonur Cosmodrome

Loading…

Volgende Passages (komende 24 uur)

TLE

VersSource: CelesTrak SupGP

Epoch: Sep 14, 2026, 17:16 UTC

1 49190C 21083E   26257.71962222 -.00000134  00000+0 -33971-3 0  2572
2 49190  87.9161 317.6695 0001924  97.6536  12.3583 13.18689572    19

Volg ONEWEB-0320 in realtime met AllMySat

Download on the App Store